Regional Weather Roundup
Issued by NWS Upton, NY

Current Version | Previous Version | Graphics & Text | Print | Product List | Glossary Off
Versions: 1 2 3 4 5 6 7 8 9 10 11 12 13 14 15 16 17 18 19 20 21 22 23 24 25 26 27 28 29 30 31 32 33 34 35 36 37 38 39 40 41 42 43 44 45 46 47 48 49 50
415 ASUS41 KOKX 130004 RWROKX REGIONAL WEATHER ROUNDUP NATIONAL WEATHER SERVICE NEW YORK NY 700 PM EST FRI FEB 12 2016 NOTE: "FAIR" INDICATES FEW OR NO CLOUDS BELOW 12,000 FEET WITH NO SIGNIFICANT WEATHER AND/OR OBSTRUCTIONS TO VISIBILITY. NYZ071-072-176-178-NJZ106-104-130100- NEW YORK CITY METRO AREA CITY SKY/WX TMP DP RH WIND PRES REMARKS CENTRAL PARK CLOUDY 24 4 42 VRB5 30.01F WCI 18 LAGUARDIA APRT CLOUDY 25 4 40 SW9 30.00F WCI 15 KENNEDY INTL CLOUDY 26 4 38 W15 30.02F WCI 14 NEWARK/LIBERTY CLOUDY 24 3 40 SW6 30.01F WCI 17 BRNX BOT. GARD N/A 25 7 46 W12 30.00S WCI 14 TETERBORO FLURRIES 24 3 40 SW8 30.00F WCI 15 $$ NYZ177-179-078>081-130100- LONG ISLAND NEW YORK CITY SKY/WX TMP DP RH WIND PRES REMARKS FARMINGDALE CLOUDY 25 8 48 W9 30.00F WCI 15 ISLIP FLURRIES 24 11 57 SW9 29.99F WCI 14 SHIRLEY CLOUDY 23 10 57 CALM 30.01F RIVERHEAD N/A 25 7 46 CALM 29.98F WESTHAMPTON CLOUDY 21 10 62 N3 30.02F EAST HAMPTON CLOUDY 22 10 60 CALM 30.02F MONTAUK POINT N/A 25 13 60 W6 30.03F WCI 18 $$ NYZ052-065-067-130100- HUDSON VALLEY CITY SKY/WX TMP DP RH WIND PRES REMARKS WHITE PLAINS CLOUDY 21 5 50 W6 29.96F WCI 13 NEWBURGH CLOUDY 23 7 50 W9 29.97S WCI 13 MONTGOMERY CLOUDY 21 2 43 SW8 29.95F WCI 11 POUGHKEEPSIE CLOUDY 24 6 46 SW6 29.98F WCI 17 ALBANY PTCLDY 23 2 40 S6 29.93F WCI 16 $$ NJZ001-105-106-008-010-013-015-019>022-104-130100- NEW JERSEY CITY SKY/WX TMP DP RH WIND PRES REMARKS NEWARK/LIBERTY CLOUDY 24 3 40 SW6 30.01F WCI 17 TETERBORO FLURRIES 24 3 40 SW8 30.00F WCI 15 CALDWELL CLOUDY 23 2 40 W8 30.00F WCI 14 MORRISTOWN CLOUDY 21 5 49 W7 30.00F WCI 13 SOMERVILLE CLOUDY 22 5 48 VRB3 30.00S SUSSEX MOCLDY 20 3 48 VRB5 29.96F WCI 13 ANDOVER N/A 19 4 51 SW6 29.96F WCI 11 TRENTON LGT SNOW 21 9 59 NW7 30.01F WCI 12 MILLVILLE LGT SNOW 24 15 68 W5 30.03S WCI 18 ATLANTIC CITY CLOUDY 25 7 46 NW7 30.03S WCI 17 WRIGHTSTOWN FLURRIES 22 9 57 NW8 29.99F WCI 13 TOMS RIVER CLOUDY 25 5 42 W9 30.02S WCI 15 BELMAR CLOUDY 25 1 36 NW13 30.00F WCI 13 $$ PAZ047>061-062-071-130100- EASTERN PENNSYLVANIA CITY SKY/WX TMP DP RH WIND PRES REMARKS PHILADELPHIA LGT SNOW 22 14 71 S5 30.04S WCI 16 ALLENTOWN MOCLDY 21 7 54 W7 29.99F WCI 12 SCRANTON CLOUDY 18 6 59 SW7 29.91F WCI 9 $$ CTZ002-004>006-009-010-012-RIZ004-006-007-MAZ004-011-015-130100- SOUTHERN NEW ENGLAND IN CT CITY SKY/WX TMP DP RH WIND PRES REMARKS BRADLEY INTL CLOUDY 21 4 47 S9 29.98F WCI 11 HARTFORD CLOUDY 23 6 48 S8 30.01F WCI 14 DANBURY CLOUDY 21 4 47 SW9 29.98F WCI 11 WTRBRY/OXFORD CLOUDY 19 1 45 SW6 29.96F WCI 11 BRIDGEPORT CLOUDY 25 9 50 SW10G21 30.01F WCI 15 MERIDEN CLOUDY 23 6 48 S5 30.00F WCI 17 NEW HAVEN CLOUDY 24 8 50 SW7 30.01F WCI 16 CHESTER FAIR 23 9 54 S3 29.99F GROTON CLOUDY 24 9 52 W7 30.02F WCI 16 WILLIMANTIC CLOUDY 22 6 50 S6 30.01F WCI 14 IN RI CITY SKY/WX TMP DP RH WIND PRES REMARKS PROVIDENCE CLOUDY 22 8 55 SW3 30.03F BLOCK ISLAND CLOUDY 25 12 58 W6 30.00F WCI 18 WESTERLY CLOUDY 24 9 52 SW5 30.03F WCI 18 IN MA CITY SKY/WX TMP DP RH WIND PRES REMARKS BOSTON CLOUDY 22 6 50 S10 30.02F WCI 11 WORCESTER CLOUDY 17 0 47 S8 29.92F WCI 7 WESTFIELD CLOUDY 21 2 43 S7 29.97F WCI 12 PROVINCETOWN CLOUDY 23 14 68 SW8 30.04F WCI 14 NANTUCKET CLOUDY 26 13 57 W7 30.03F WCI 18 $$ ANZ330-335-338-340-345-350-353-355-130100- COASTAL MARINE OBSERVATIONS STATION/POSITION TIME SKY/WX TEMP WIND PRES VSBY WAVE AIR SEA DIR/SP/G HT/PER (UTC) (F) (DEG/KT/KT) (MB) (MI) (FT/S) NY HARB ENTRANCE 2250 27 42 240/ 10/ 14 1016.3 1/ 8 4S FIRE IS NOT AVBL 20S FIRE ISLAND 2250 26 41 230/ 12/ 16 1016.7 2/10 GREAT SOUTH BAY NOT AVBL 23SW MTP 2350 28 45 240/ 12/ 16 1015.8 2/10 HUDSON CANYON 2250 29 48 1016.6 3/10 KINGS POINT 2300 24 36 1016.0 EXECUTION ROCKS NOT AVBL CENTRAL LI SOUND 2300 24 220/ 10/ 14 N/A 1/ 2 EASTERN LI SOUND 2300 26 41 240/ 12/ 16 N/A ROBBINS REEF 2300 24 1015.8 $$ >>>>>>>>>>>>>>>>>>>>>>>>>>>> KEY <<<<<<<<<<<<<<<<<<<<<<<<<<< > < > SKY/WX - SKY CONDITION/PRESENT WEATHER < > TMP - TEMPERATURE IN FAHRENHEIT < > DP - DEWPOINT IN FAHRENHEIT < > RH - RELATIVE HUMIDITY IN PERCENT < > WIND - DIRECTION AND SPEED IN MPH < > PRES - MEAN SEA LEVEL PRESSURE IN INCHES OF HG < > WCI - WIND CHILL INDEX < > VSB - VISIBILITY IN MILES < > HX - HEAT INDEX < > TC - TEMPERATURE IN CELSIUS < > VRB - VARIABLE WIND DIRECTION < > < >>>>>>>>>>>>>>>>>>>>>>>>>>>> KEY <<<<<<<<<<<<<<<<<<<<<<<<<<<

USA.gov is the U.S. government's official web portal to all federal, state and local government web resources and services.